[[{"header":{"parameterUnit":"m.s-1","parameterCategory":2,"la1":30.2991,"la2":30.254,"lo1":-89.0895,"lo2":-89.0444,"dy":0.0017,"dx":0.0017,"nx":28,"ny":28,"refTime":"2025-06-21T21:00:00:Z","depth":"0","parameterNumber":2,"parameterNumberName":"U-component_of_CURRENTS"},"data":[0,0,0,0,0,0,0,0,0,0,0,0,0,0,0,0,0,0,0,0,0,0,0,0,0,0,0,0,0,0,0,0,0,0,0,0,0,0,0,0,0,0,0,0,0,0,0,0,0,0,0,0,0,0,0,0,0,0,0.4249,0.425,0,0.432,0.4321,0.4322,0.4364,0.4365,0.4365,0.4365,0.4456,0.4458,0.4461,0,0,0,0,0,0,0,0,0,0,0,0,0,0.4153,0.4154,0.4249,0.425,0.4251,0.432,0.4321,0.4322,0.4364,0.4365,0.4365,0.4365,0.4455,0.4458,0.4461,0,0,0,0,0,0,0,0,0,0,0,0,0,0.4206,0.4155,0.4249,0.428,0.4284,0.432,0.4321,0.4322,0.4364,0.4365,0.4365,0.4365,0.4455,0.4458,0.4461,0.4476,0,0,0.4472,0.4473,0,0,0,0,0,0,0,0,0.4203,0.421,0.4275,0.4278,0.4282,0.4333,0.432,0.4375,0.4364,0.4334,0.4365,0.4365,0.4417,0.4423,0.4436,0.4481,0.4485,0.4472,0.4474,0.4475,0.4476,0,0,0,0,0,0,0,0.42,0.4207,0.4277,0.4276,0.428,0.4291,0.4299,0.4331,0.4373,0.4337,0.434,0.4347,0.4419,0.4432,0.4438,0.4486,0.4472,0.4475,0.4477,0.4478,0.4552,0.4552,0,0,0,0,0,0,0.419,0.4204,0.4275,0.428,0.4242,0.4293,0.4302,0.4317,0.4373,0.4381,0.4347,0.4349,0.4427,0.4434,0.4442,0.4465,0.4475,0.4478,0.448,0.4552,0.4552,0.4552,0,0,0,0,0,0,0.4188,0.4196,0.4272,0.4242,0.4253,0.4294,0.4311,0.4318,0.4332,0.438,0.4389,0.4353,0.4427,0.4437,0.4467,0.4469,0.448,0.4483,0.4552,0.4552,0.4552,0.4511,0,0,0,0,0,0,0.4185,0.4195,0.4206,0.4242,0.4254,0.4286,0.4311,0.4319,0.4336,0.4339,0.4389,0.4398,0.4428,0.4461,0.447,0.4474,0.4486,0.4552,0.4552,0.4552,0.4513,0.451,0.4507,0,0,0,0,0,0.4182,0.4195,0.4206,0.4215,0.4267,0.4286,0.4293,0.4323,0.4336,0.4337,0.4372,0.4396,0.4467,0.4464,0.4474,0.4479,0.4553,0.4552,0.4552,0.4514,0.451,0.4508,0,0,0,0,0,0,0.4172,0.4202,0.4215,0.4241,0.4257,0.4293,0.43,0.4319,0.4348,0.4352,0.4397,0.4408,0.444,0.4461,0.4456,0.45,0.4513,0.4515,0.4481,0.4478,0.4475,0.447,0.4489,0,0,0,0,0,0.4171,0.4185,0.4211,0.4233,0.4234,0.4265,0.4278,0.4296,0.4324,0.4338,0.437,0.4407,0.4448,0.4461,0.4499,0.4517,0.4552,0.4526,0.4523,0.4521,0.4523,0.4603,0.4608,0.4552,0.4552,0.4552,0,0,0.4178,0.4194,0.4206,0.423,0.4244,0.426,0.4273,0.4286,0.4306,0.4343,0.4374,0.4404,0.4453,0.448,0.4495,0.4495,0.4547,0.4521,0.4518,0.4522,0.4604,0.4609,0.4615,0.4552,0.4552,0.4552,0,0,0.4189,0.4202,0.4212,0.4223,0.4238,0.4252,0.4252,0.4277,0.429,0.4317,0.4356,0.438,0.4432,0.4465,0.4491,0.4493,0.4538,0.4503,0.4478,0.4555,0.4561,0.4566,0.458,0.4587,0.4492,0.4492,0.4492,0,0.4193,0.4222,0.4218,0.4229,0.4246,0.4247,0.4266,0.4275,0.431,0.432,0.4322,0.4398,0.443,0.4476,0.4472,0.4489,0.4523,0.4486,0.4553,0.4559,0.4566,0.4579,0.4588,0.449,0.449,0.449,0.4491,0,0.4213,0.4238,0.424,0.4258,0.4266,0.428,0.4288,0.429,0.43,0.4315,0.4348,0.4382,0.4428,0.4435,0.4455,0.4507,0.4511,0.4548,0.4561,0.4569,0.4582,0.4592,0.4487,0.4488,0.4488,0.4489,0,0,0.4221,0.4251,0.4254,0.4272,0.4286,0.4294,0.4305,0.432,0.4328,0.4339,0.4365,0.4404,0.4408,0.4436,0.4459,0.4502,0.4556,0.4534,0.4539,0.4546,0.4689,0.4457,0.4445,0.4617,0.462,0.4622,0.4665,0,0.4242,0.4281,0.4286,0.4321,0.4342,0.4338,0.4349,0.4355,0.4356,0.4369,0.4384,0.4416,0.4414,0.4431,0.4475,0.4545,0.4586,0.4537,0.4682,0.4684,0.4478,0.4451,0.4169,0.4165,0.4675,0.4677,0.4678,0,0.4261,0.4291,0.4335,0.4363,0.4366,0.4377,0.4386,0.4394,0.4397,0.4398,0.4411,0.4425,0.446,0.4476,0.458,0.4553,0.4619,0.4664,0.4668,0.4476,0.447,0.4249,0.4164,0.4023,0.4694,0.4692,0.4691,0,0.4278,0.432,0.4361,0.4374,0.44,0.4404,0.4406,0.4404,0.4394,0.4414,0.4406,0.4457,0.447,0.4571,0.4611,0.4626,0.4725,0.4769,0.4619,0.4603,0.4399,0.4359,0.4193,0.4877,0.4877,0.4877,0.4876,0,0.4304,0.4333,0.437,0.4392,0.4407,0.4421,0.4416,0.4417,0.4414,0.4394,0.4418,0.4412,0.4503,0.4543,0.4623,0.4597,0.4739,0.4594,0.4598,0.4367,0.4325,0.4223,0.423,0.4878,0.4878,0.4878,0.4877,0,0.4308,0.4346,0.4379,0.4413,0.4414,0.4418,0.4396,0.4381,0.4391,0.437,0.4373,0.4387,0.4392,0.4444,0.4576,0.4559,0.4446,0.4588,0.4254,0.4214,0.3872,0.3888,0.3659,0.359,0.4405,0.4399,0.4395,0,0.4304,0.4331,0.4371,0.4358,0.4365,0.4366,0.4347,0.4364,0.4342,0.4342,0.4326,0.4311,0.4268,0.4287,0.4229,0.4239,0.4233,0.4013,0.3976,0.3769,0.3798,0.3724,0.3683,0.37,0.369,0.3682,0.3675,0,0.427,0.4292,0.4305,0.431,0.4296,0.4274,0.4257,0.4245,0.4255,0.4233,0.419,0.4163,0.4058,0.3849,0.3788,0.3804,0.3736,0.3839,0.3752,0.33,0.3092,0.3054,0.3736,0.3603,0.361,0.3615,0.3619,0.3622,0.4211,0.421,0.423,0.4215,0.4201,0.4165,0.4089,0.4078,0.4039,0.3908,0.402,0.3834,0.3578,0.3385,0.3373,0.3038,0.3217,0.2929,0.2991,0.2953,0.2775,0.3229,0.3017,0.3021,0.3024,0.3027,0.303,0,0.4131,0.4137,0.4117,0.4094,0.4032,0.4063,0.3995,0.3865,0.3758,0.3661,0.3573,0.3197,0.2913,0.2719,0.236,0.2227,0.2226,0.2163,0.2045,0.208,0.2572,0.2423,0.1915,0.1916,0.1916,0.1916,0.1916,0.1916,0.4084,0.4053,0.4051,0.393,0.3892,0.3716,0.3637,0.3454,0.332,0.2947,0.2656,0.2567,0.2317,0.1941,0.1652,0.1637,0.1606,0.141,0.1594,0.1963,0.2041,0.2115,0.1972,0.1378,0.1378,0.0944,0.0941,0.0938]},{"header":{"parameterUnit":"m.s-1","parameterCategory":2,"la1":30.2991,"la2":30.254,"lo1":-89.0895,"lo2":-89.0444,"dy":0.0017,"dx":0.0017,"nx":28,"ny":28,"refTime":"2025-06-21T21:00:00:Z","depth":"0","parameterNumber":3,"parameterNumberName":"V-component_of_CURRENTS"},"data":[0,0,0,0,0,0,0,0,0,0,0,0,0,0,0,0,0,0,0,0,0,0,0,0,0,0,0,0,0,0,0,0,0,0,0,0,0,0,0,0,0,0,0,0,0,0,0,0,0,0,0,0,0,0,0,0,0,0,0.008,0.0081,0,0.0102,0.0102,0.0102,0.0097,0.0097,0.0097,0.0097,0.0143,0.0144,0.0145,0,0,0,0,0,0,0,0,0,0,0,0,0,0.0045,0.0046,0.008,0.0081,0.0081,0.0102,0.0102,0.0102,0.0097,0.0097,0.0097,0.0097,0.0142,0.0144,0.0145,0,0,0,0,0,0,0,0,0,0,0,0,0,0.0061,0.0046,0.008,0.0083,0.0084,0.0101,0.0102,0.0102,0.0097,0.0097,0.0097,0.0097,0.0142,0.0144,0.0146,0.0164,0,0,0.0152,0.0153,0,0,0,0,0,0,0,0,0.006,0.0062,0.0082,0.0083,0.0084,0.0098,0.0106,0.0125,0.0097,0.009,0.0097,0.0096,0.0132,0.0135,0.0136,0.0167,0.0169,0.0152,0.0154,0.0154,0.0155,0,0,0,0,0,0,0,0.0059,0.0061,0.0087,0.0083,0.0084,0.0087,0.0088,0.0109,0.0111,0.0091,0.0091,0.0097,0.0132,0.0134,0.0137,0.0169,0.0152,0.0154,0.0155,0.0156,0.0295,0.0298,0,0,0,0,0,0,0.006,0.006,0.0086,0.0088,0.0073,0.0087,0.0089,0.0092,0.011,0.0113,0.0097,0.0096,0.013,0.0135,0.0139,0.0217,0.0154,0.0156,0.0158,0.0293,0.0296,0.0299,0,0,0,0,0,0,0.0059,0.0062,0.0085,0.0076,0.0079,0.0089,0.0092,0.0093,0.0096,0.0115,0.0118,0.01,0.013,0.0136,0.0167,0.0217,0.0157,0.0159,0.029,0.0294,0.0297,0.0339,0,0,0,0,0,0,0.0058,0.0062,0.006,0.0076,0.008,0.0099,0.0093,0.0094,0.0101,0.0101,0.0119,0.0123,0.013,0.0164,0.0169,0.0219,0.0161,0.0287,0.0292,0.0296,0.0335,0.0344,0.0351,0,0,0,0,0,0.0057,0.0057,0.006,0.0063,0.0079,0.01,0.0102,0.0106,0.0102,0.0107,0.0123,0.0122,0.0198,0.0166,0.0172,0.0224,0.0285,0.029,0.0296,0.0331,0.0342,0.0351,0,0,0,0,0,0,0.0038,0.0057,0.006,0.0065,0.0083,0.01,0.0103,0.0108,0.0123,0.0123,0.0136,0.0142,0.0193,0.0203,0.0168,0.0282,0.0249,0.0255,0.0273,0.0284,0.0292,0.0312,0.0163,0,0,0,0,0,0.0034,0.004,0.0062,0.0066,0.0075,0.0089,0.0096,0.0104,0.0122,0.0127,0.0143,0.0176,0.0222,0.0244,0.0273,0.0324,0.0345,0.0369,0.0377,0.0384,0.0407,0.0503,0.0522,0.0317,0.0317,0.0317,0,0,0.0027,0.004,0.0041,0.0063,0.0074,0.0105,0.0092,0.0108,0.0145,0.0132,0.0178,0.0196,0.024,0.0301,0.0327,0.0314,0.0444,0.0391,0.0396,0.0416,0.0511,0.053,0.0548,0.032,0.032,0.0319,0,0,0.0024,0.0029,0.0037,0.0061,0.0086,0.0107,0.0114,0.0138,0.0157,0.0201,0.0215,0.0266,0.0313,0.0368,0.0402,0.0479,0.048,0.0487,0.0551,0.0644,0.0661,0.0677,0.0681,0.0697,0.0498,0.0498,0.0498,0,0.0011,0.0036,0.0043,0.0069,0.01,0.0113,0.0149,0.0177,0.021,0.0247,0.0223,0.0343,0.0361,0.0478,0.0501,0.0501,0.0519,0.0502,0.0654,0.0671,0.0687,0.0687,0.0704,0.0501,0.05,0.05,0.05,0,0.0025,0.0053,0.0063,0.011,0.0142,0.0172,0.0223,0.0257,0.0282,0.0319,0.0415,0.0448,0.0526,0.0546,0.0543,0.0676,0.0636,0.0645,0.0623,0.071,0.0704,0.0721,0.0505,0.0504,0.0503,0.0502,0,0,-0.0024,0.0056,0.006,0.0106,0.0171,0.0204,0.0278,0.0359,0.0424,0.0465,0.0567,0.064,0.0654,0.0695,0.0711,0.0788,0.0882,0.0761,0.0764,0.0754,0.1027,0.0938,0.0947,0.0918,0.0922,0.0926,0.0959,0,-0.0013,0.0052,0.0093,0.0176,0.0224,0.0283,0.0357,0.0435,0.0498,0.0594,0.0666,0.0753,0.0716,0.0756,0.0833,0.089,0.0938,0.0869,0.0955,0.0957,0.0861,0.097,0.0909,0.0931,0.0976,0.0979,0.0981,0,-0.0008,0.0042,0.012,0.0239,0.0264,0.0317,0.0451,0.0518,0.0655,0.0706,0.0809,0.0857,0.0984,0.0934,0.1075,0.103,0.1029,0.1053,0.1055,0.0979,0.0904,0.0865,0.096,0.0915,0.1007,0.1005,0.1003,0,-0.0022,0.007,0.0139,0.0176,0.03,0.0354,0.0421,0.0549,0.063,0.0782,0.0859,0.0995,0.1078,0.1143,0.1165,0.1138,0.1296,0.1267,0.1173,0.1162,0.1135,0.1115,0.1197,0.1359,0.1359,0.1359,0.1359,0,-0.0004,0.0058,0.0133,0.0179,0.0273,0.0351,0.0467,0.0553,0.0693,0.0818,0.0907,0.1031,0.1142,0.1232,0.1228,0.1253,0.1344,0.121,0.1199,0.1139,0.112,0.1096,0.1068,0.136,0.136,0.1359,0.1359,0,0.002,0.0053,0.0145,0.0248,0.0276,0.0348,0.0483,0.0579,0.0687,0.086,0.0916,0.1094,0.1214,0.1266,0.1379,0.1326,0.1324,0.1324,0.1196,0.1169,0.1024,0.0999,0.1066,0.1086,0.1249,0.1248,0.1246,0,0.0063,0.0102,0.0188,0.0229,0.0282,0.0377,0.0456,0.057,0.0676,0.09,0.0998,0.1153,0.1286,0.1378,0.1338,0.1316,0.1285,0.1197,0.1149,0.1036,0.1002,0.0983,0.0996,0.1103,0.1101,0.1099,0.1097,0,0.0156,0.0164,0.0228,0.0294,0.0361,0.046,0.0571,0.0646,0.0807,0.094,0.1143,0.1262,0.1336,0.1336,0.1266,0.1226,0.1155,0.1152,0.1126,0.0978,0.0884,0.0888,0.0992,0.108,0.1082,0.1083,0.1084,0.1085,0.0227,0.0268,0.0314,0.0383,0.0459,0.0563,0.0645,0.0766,0.0922,0.113,0.1219,0.1387,0.1327,0.1251,0.1178,0.0971,0.1035,0.0904,0.0901,0.0904,0.0891,0.0903,0.0924,0.0925,0.0925,0.0926,0.0927,0,0.0309,0.0336,0.0408,0.0486,0.0582,0.0603,0.0746,0.0828,0.1,0.117,0.1319,0.1355,0.1258,0.1134,0.0859,0.0745,0.0747,0.07,0.0693,0.0738,0.0828,0.0785,0.0671,0.0671,0.0671,0.0671,0.0672,0.0672,0.0359,0.041,0.0428,0.0576,0.0643,0.0759,0.0837,0.0944,0.1067,0.1212,0.1285,0.1348,0.1228,0.0852,0.0613,0.0576,0.0584,0.0513,0.0586,0.0637,0.0657,0.0675,0.0632,0.0488,0.0488,0.0501,0.0501,0.05]}],[{"header":{"parameterUnit":"m.s-1","parameterCategory":2,"la1":30.2991,"la2":30.254,"lo1":-89.0895,"lo2":-89.0444,"dy":0.0017,"dx":0.0017,"nx":28,"ny":28,"refTime":"2025-06-21T21:00:00:Z","depth":"2","parameterNumber":2,"parameterNumberName":"U-component_of_CURRENTS"},"data":[0,0,0,0,0,0,0,0,0,0,0,0,0,0,0,0,0,0,0,0,0,0,0,0,0,0,0,0,0,0,0,0,0,0,0,0,0,0,0,0,0,0,0,0,0,0,0,0,0,0,0,0,0,0,0,0,0,0,0.2136,0.2137,0,0.2178,0.2178,0.2178,0.2161,0.2161,0.216,0.216,0.2213,0.2214,0.2216,0,0,0,0,0,0,0,0,0,0,0,0,0,0.1964,0.1967,0.2136,0.2137,0.2138,0.2178,0.2178,0.2178,0.2161,0.2161,0.216,0.216,0.2212,0.2214,0.2216,0,0,0,0,0,0,0,0,0,0,0,0,0,0.202,0.1968,0.2136,0.2139,0.214,0.2178,0.2178,0.2178,0.2161,0.2161,0.216,0.2159,0.2211,0.2214,0.2217,0.2247,0,0,0.2225,0.2226,0,0,0,0,0,0,0,0,0.2017,0.2026,0.2138,0.2139,0.214,0.2168,0.2136,0.2203,0.2162,0.2148,0.216,0.2159,0.2203,0.2206,0.2208,0.225,0.2252,0.2225,0.2227,0.2228,0.2229,0,0,0,0,0,0,0,0.2013,0.2024,0.2147,0.2139,0.2141,0.2111,0.2119,0.2148,0.2175,0.2149,0.2149,0.2163,0.2203,0.2205,0.2209,0.2253,0.2225,0.2228,0.2229,0.223,0.2436,0.244,0,0,0,0,0,0,0.2025,0.2021,0.2146,0.2149,0.2082,0.2116,0.2124,0.2156,0.2174,0.2178,0.2163,0.2162,0.2201,0.2206,0.2211,0.2334,0.2228,0.2231,0.2232,0.2433,0.2437,0.2441,0,0,0,0,0,0,0.2022,0.2037,0.2144,0.2088,0.2101,0.2121,0.2156,0.2157,0.2185,0.2186,0.2188,0.2194,0.22,0.2207,0.2261,0.2333,0.2232,0.2234,0.2428,0.2434,0.2439,0.2527,0,0,0,0,0,0,0.2017,0.2035,0.2078,0.209,0.2105,0.2172,0.2157,0.2158,0.2196,0.2195,0.2213,0.2215,0.22,0.2257,0.2263,0.2335,0.2237,0.2423,0.2431,0.2438,0.2519,0.2535,0.2548,0,0,0,0,0,0.2011,0.206,0.208,0.2096,0.2158,0.2173,0.2177,0.2184,0.2198,0.2207,0.2233,0.2216,0.2308,0.2261,0.2268,0.2342,0.242,0.2429,0.2437,0.2513,0.2532,0.2548,0,0,0,0,0,0,0.2011,0.2065,0.2086,0.2153,0.2169,0.2173,0.2195,0.2209,0.2237,0.2248,0.2248,0.2253,0.2331,0.2332,0.228,0.2429,0.2369,0.238,0.2425,0.2443,0.2457,0.2416,0.2239,0,0,0,0,0,0.2036,0.2089,0.2117,0.2175,0.2184,0.2201,0.2219,0.2224,0.2245,0.2257,0.228,0.2321,0.2371,0.2399,0.2428,0.2503,0.2503,0.2565,0.258,0.2592,0.2568,0.2699,0.2723,0.247,0.247,0.247,0,0,0.206,0.2094,0.213,0.2179,0.2193,0.2209,0.2208,0.2239,0.2271,0.2262,0.2328,0.2367,0.2402,0.248,0.2519,0.249,0.2655,0.2603,0.2612,0.2581,0.2711,0.2735,0.2757,0.2476,0.2475,0.2474,0,0,0.2085,0.2155,0.2182,0.2199,0.2231,0.2243,0.2262,0.2288,0.2317,0.2383,0.2401,0.2476,0.2547,0.2584,0.2614,0.2733,0.2725,0.2773,0.2816,0.2946,0.2967,0.2986,0.2967,0.2984,0.2785,0.2785,0.2785,0,0.2113,0.2158,0.219,0.2202,0.2239,0.2262,0.2289,0.2317,0.2366,0.2414,0.2414,0.2571,0.2592,0.2706,0.2739,0.2763,0.2793,0.2741,0.2963,0.2982,0.2999,0.2977,0.2994,0.2791,0.279,0.2789,0.2789,0,0.2118,0.2178,0.2194,0.2233,0.2267,0.2302,0.234,0.2393,0.2452,0.2489,0.2622,0.2672,0.2764,0.2808,0.2799,0.2955,0.2916,0.2962,0.2909,0.303,0.2998,0.3014,0.2798,0.2796,0.2795,0.2793,0,0,0.2141,0.2193,0.2206,0.2241,0.2299,0.2325,0.2397,0.2473,0.2533,0.262,0.2718,0.2828,0.2874,0.291,0.2953,0.3048,0.3173,0.3057,0.3062,0.3015,0.3376,0.3103,0.3092,0.3291,0.3296,0.3299,0.3284,0,0.2148,0.2188,0.2219,0.229,0.2326,0.2389,0.2452,0.2528,0.2603,0.2693,0.2798,0.2893,0.2912,0.2974,0.3085,0.3147,0.3229,0.3165,0.3282,0.3281,0.3011,0.3109,0.2894,0.2844,0.3299,0.3301,0.3303,0,0.2143,0.2184,0.2245,0.2347,0.2368,0.2413,0.2543,0.2597,0.2715,0.2777,0.2903,0.2964,0.3091,0.311,0.3289,0.326,0.332,0.3362,0.3366,0.3085,0.3041,0.2811,0.2856,0.3329,0.3327,0.3325,0.3324,0,0.2146,0.2218,0.2282,0.2312,0.2405,0.2468,0.253,0.2639,0.2695,0.2831,0.2884,0.3052,0.3125,0.3276,0.3313,0.3352,0.3461,0.3539,0.3338,0.3315,0.313,0.3081,0.3694,0.3694,0.3694,0.3694,0.3694,0,0.2164,0.2224,0.2289,0.2327,0.2414,0.248,0.2577,0.2653,0.2751,0.2811,0.2931,0.2991,0.319,0.3254,0.333,0.331,0.349,0.332,0.3317,0.3143,0.3098,0.3529,0.351,0.3693,0.3693,0.3693,0.3693,0,0.219,0.2218,0.2294,0.2388,0.2418,0.2488,0.2585,0.2641,0.2729,0.2809,0.2854,0.2972,0.305,0.3141,0.3311,0.3274,0.3316,0.3274,0.295,0.2906,0.3079,0.3065,0.3088,0.3079,0.3071,0.3064,0.3059,0,0.2225,0.2257,0.2333,0.2363,0.2416,0.2502,0.2553,0.2638,0.2675,0.2775,0.2799,0.2883,0.2897,0.2925,0.2916,0.2926,0.3118,0.2687,0.273,0.3034,0.303,0.3028,0.3026,0.2516,0.2507,0.2499,0.2493,0,0.2295,0.2305,0.2347,0.2392,0.2442,0.2487,0.2553,0.2554,0.2634,0.2665,0.2664,0.2671,0.2664,0.2533,0.2474,0.2479,0.2661,0.252,0.3014,0.2661,0.2484,0.2482,0.2502,0.2424,0.2431,0.2436,0.244,0.2442,0.2345,0.2363,0.2378,0.2413,0.2459,0.2451,0.2434,0.2467,0.2459,0.2414,0.2456,0.2351,0.2327,0.2115,0.2037,0.1983,0.2209,0.2156,0.2188,0.2226,0.2121,0.1937,0.1747,0.175,0.1752,0.1755,0.1757,0,0.2359,0.2365,0.2399,0.2376,0.2367,0.2434,0.2414,0.2307,0.2236,0.2197,0.2126,0.1824,0.1696,0.1714,0.152,0.146,0.1548,0.1414,0.156,0.1626,0.1685,0.1563,0.1036,0.1033,0.1032,0.103,0,0,0.2366,0.2342,0.2317,0.2262,0.228,0.2217,0.2186,0.2028,0.1934,0.1713,0.1608,0.1609,0.1633,0.1318,0.1257,0.1126,0.1384,0.1073,0.165,0.1889,0.1947,0.2098,0.1977,0,0,0,0,0]},{"header":{"parameterUnit":"m.s-1","parameterCategory":2,"la1":30.2991,"la2":30.254,"lo1":-89.0895,"lo2":-89.0444,"dy":0.0017,"dx":0.0017,"nx":28,"ny":28,"refTime":"2025-06-21T21:00:00:Z","depth":"2","parameterNumber":3,"parameterNumberName":"V-component_of_CURRENTS"},"data":[0,0,0,0,0,0,0,0,0,0,0,0,0,0,0,0,0,0,0,0,0,0,0,0,0,0,0,0,0,0,0,0,0,0,0,0,0,0,0,0,0,0,0,0,0,0,0,0,0,0,0,0,0,0,0,0,0,0,-0.0094,-0.0093,0,-0.0024,-0.0023,-0.0023,-0.0029,-0.003,-0.0031,-0.0032,-0.0027,-0.0026,-0.0025,0,0,0,0,0,0,0,0,0,0,0,0,0,-0.0168,-0.0167,-0.0094,-0.0093,-0.0092,-0.0024,-0.0023,-0.0022,-0.0029,-0.003,-0.0032,-0.0033,-0.0027,-0.0026,-0.0025,0,0,0,0,0,0,0,0,0,0,0,0,0,-0.0122,-0.0167,-0.0094,-0.0086,-0.0084,-0.0024,-0.0023,-0.0022,-0.0029,-0.003,-0.0032,-0.0033,-0.0027,-0.0026,-0.0024,0.0012,0,0,-0.002,-0.0019,0,0,0,0,0,0,0,0,-0.0125,-0.012,-0.0088,-0.0086,-0.0084,-0.0035,-0.0047,-0.0013,-0.0029,-0.0052,-0.0032,-0.0034,-0.0033,-0.0031,-0.0017,0.0013,0.0013,-0.002,-0.0019,-0.0018,-0.0018,0,0,0,0,0,0,0,-0.0128,-0.0123,-0.0068,-0.0087,-0.0085,-0.0062,-0.0058,-0.004,-0.0039,-0.005,-0.005,-0.0039,-0.0033,-0.0018,-0.0017,0.0013,-0.002,-0.0018,-0.0017,-0.0017,0.0058,0.0059,0,0,0,0,0,0,-0.0135,-0.0126,-0.0071,-0.0066,-0.0106,-0.006,-0.0056,-0.0051,-0.0037,-0.0035,-0.0038,-0.0039,-0.002,-0.0019,-0.0017,0.0022,-0.0018,-0.0017,-0.0016,0.0057,0.0058,0.0059,0,0,0,0,0,0,-0.0137,-0.0131,-0.0073,-0.0092,-0.0083,-0.0058,-0.0052,-0.0049,-0.0048,-0.0027,-0.0027,-0.0041,-0.0021,-0.0019,-0.0,0.0022,-0.0016,-0.0015,0.0056,0.0057,0.0059,0.0104,0,0,0,0,0,0,-0.0139,-0.0132,-0.0138,-0.0093,-0.0083,-0.0043,-0.0051,-0.0047,-0.0037,-0.0039,-0.0029,-0.0029,-0.0022,-0.0002,0.0001,0.0024,-0.0013,0.0054,0.0056,0.0058,0.0101,0.0107,0.0111,0,0,0,0,0,-0.0142,-0.0133,-0.0139,-0.0132,-0.0089,-0.0043,-0.0035,-0.0023,-0.0036,-0.0029,-0.002,-0.003,0.0013,0.0,0.0004,0.0027,0.0053,0.0056,0.0058,0.0098,0.0105,0.0111,0,0,0,0,0,0,-0.0158,-0.0131,-0.0137,-0.0119,-0.009,-0.0043,-0.0032,-0.0027,-0.0012,-0.0021,-0.0013,-0.0011,0.0014,0.0014,-0.0,0.0054,0.003,0.0034,0.006,0.0066,0.0072,0.01,-0.0012,0,0,0,0,0,-0.0167,-0.016,-0.0126,-0.0111,-0.01,-0.0072,-0.0055,-0.0045,-0.0021,-0.0017,-0.001,0.0003,0.0033,0.0041,0.006,0.009,0.0107,0.0107,0.0112,0.0117,0.0142,0.0194,0.0207,0.0067,0.0067,0.0067,0,0,-0.0164,-0.0151,-0.0145,-0.0116,-0.0094,-0.0051,-0.0066,-0.0038,0.0,-0.0017,0.0019,0.0019,0.0044,0.0083,0.0094,0.0082,0.0161,0.012,0.0124,0.0147,0.0198,0.0212,0.0224,0.0069,0.0069,0.0069,0,0,-0.0136,-0.015,-0.0127,-0.0102,-0.0071,-0.0049,-0.0045,-0.001,0.0001,0.0037,0.0041,0.0062,0.0086,0.0125,0.0147,0.0195,0.0187,0.0181,0.0235,0.0284,0.0296,0.0307,0.0328,0.0341,0.0184,0.0185,0.0185,0,-0.0137,-0.0102,-0.011,-0.0072,-0.004,-0.0046,0.0004,0.0026,0.0061,0.009,0.0049,0.0125,0.0123,0.0215,0.0219,0.0211,0.0221,0.0207,0.0293,0.0304,0.0315,0.0333,0.0347,0.0187,0.0187,0.0186,0.0186,0,-0.0079,-0.0053,-0.0034,0.0008,0.0037,0.0076,0.0108,0.0129,0.0127,0.0156,0.0215,0.0218,0.027,0.0262,0.0251,0.0333,0.0307,0.0292,0.0278,0.0332,0.0347,0.0361,0.019,0.019,0.0189,0.0188,0,0,-0.0073,-0.0006,-0.0001,0.0039,0.0081,0.012,0.0178,0.0246,0.0307,0.0304,0.0395,0.0409,0.0396,0.042,0.0408,0.0435,0.0491,0.0386,0.0388,0.041,0.0579,0.0465,0.0467,0.0482,0.0485,0.0488,0.0552,0,-0.0023,0.0065,0.0082,0.0172,0.0226,0.0244,0.0311,0.0365,0.0396,0.0474,0.0484,0.0543,0.0464,0.0481,0.0502,0.051,0.0531,0.0474,0.0521,0.0523,0.0418,0.0482,0.0441,0.0486,0.0565,0.0567,0.0569,0,0.0037,0.0085,0.018,0.0276,0.0299,0.0343,0.0448,0.0507,0.0604,0.0631,0.0683,0.0689,0.0745,0.0655,0.07,0.0662,0.0624,0.0608,0.0611,0.0505,0.0435,0.0449,0.0508,0.0591,0.0589,0.0587,0.0586,0,0.0075,0.0162,0.0238,0.0269,0.0367,0.0407,0.0452,0.0548,0.0617,0.0725,0.0789,0.0846,0.0883,0.0865,0.0795,0.0759,0.0832,0.0787,0.0655,0.0646,0.0624,0.0607,0.0823,0.0823,0.0823,0.0823,0.0822,0,0.0149,0.0203,0.0251,0.0302,0.038,0.0436,0.0535,0.0598,0.0714,0.0829,0.0856,0.0959,0.0932,0.0957,0.0877,0.0804,0.0897,0.0688,0.0668,0.0632,0.0615,0.0716,0.0703,0.0825,0.0824,0.0824,0.0823,0,0.0195,0.0235,0.0313,0.0391,0.0405,0.0455,0.0547,0.0642,0.0737,0.0894,0.0931,0.1057,0.1079,0.1026,0.1016,0.0905,0.085,0.0792,0.0726,0.0695,0.0611,0.0599,0.0682,0.0679,0.0676,0.0674,0.0672,0,0.0233,0.0279,0.0345,0.0377,0.0401,0.0465,0.053,0.063,0.0744,0.0959,0.1062,0.1132,0.1182,0.1112,0.0946,0.0799,0.0812,0.0659,0.0574,0.0631,0.0604,0.0596,0.0589,0.0568,0.0566,0.0564,0.0562,0,0.0287,0.0294,0.0353,0.0416,0.0467,0.0547,0.0647,0.0742,0.0907,0.1031,0.1222,0.1268,0.1185,0.1036,0.081,0.0705,0.0674,0.0605,0.0751,0.0576,0.052,0.0493,0.0491,0.0543,0.0545,0.0546,0.0547,0.0548,0.0299,0.0334,0.0404,0.0463,0.0524,0.0651,0.0727,0.0863,0.1029,0.1211,0.1279,0.1292,0.1164,0.0817,0.0668,0.0487,0.0505,0.0435,0.0444,0.0456,0.0397,0.0336,0.0314,0.0314,0.0315,0.0315,0.0315,0,0.0341,0.0384,0.0451,0.0558,0.0651,0.0664,0.0829,0.0911,0.1082,0.118,0.1255,0.1077,0.0921,0.0762,0.0448,0.0285,0.0302,0.0251,0.032,0.0337,0.0353,0.0293,0.018,0.018,0.018,0.0179,0,0,0.0377,0.0455,0.0499,0.0657,0.0716,0.0812,0.0894,0.0986,0.1049,0.1109,0.1074,0.1072,0.0901,0.0664,0.048,0.0318,0.0359,0.0281,0.0395,0.0512,0.053,0.0454,0.0378,0,0,0,0,0]}],[{"header":{"parameterUnit":"m.s-1","parameterCategory":2,"la1":30.2991,"la2":30.254,"lo1":-89.0895,"lo2":-89.0444,"dy":0.0017,"dx":0.0017,"nx":28,"ny":28,"refTime":"2025-06-21T21:00:00:Z","depth":"4","parameterNumber":2,"parameterNumberName":"U-component_of_CURRENTS"},"data":[0,0,0,0,0,0,0,0,0,0,0,0,0,0,0,0,0,0,0,0,0,0,0,0,0,0,0,0,0,0,0,0,0,0,0,0,0,0,0,0,0,0,0,0,0,0,0,0,0,0,0,0,0,0,0,0,0,0,0.0111,0.011,0,0.0036,0.0035,0.0034,-0.0004,-0.0004,-0.0003,-0.0003,-0.0057,-0.0059,-0.0061,0,0,0,0,0,0,0,0,0,0,0,0,0,0.0205,0.0203,0.0111,0.011,0.011,0.0037,0.0035,0.0033,-0.0004,-0.0004,-0.0003,-0.0003,-0.0057,-0.0059,-0.0061,0,0,0,0,0,0,0,0,0,0,0,0,0,0.0146,0.0203,0.0111,0.0086,0.0084,0.0037,0.0035,0.0033,-0.0004,-0.0004,-0.0003,-0.0002,-0.0056,-0.0059,-0.0062,-0.0093,0,0,-0.007,-0.0071,0,0,0,0,0,0,0,0,0.0149,0.0142,0.009,0.0088,0.0085,0.0031,0.0049,-0.0006,-0.0005,0.0023,-0.0003,-0.0002,-0.0023,-0.0029,-0.0052,-0.0095,-0.0098,-0.007,-0.0072,-0.0073,-0.0074,0,0,0,0,0,0,0,0.0154,0.0145,0.0076,0.009,0.0087,0.0074,0.0066,0.0037,-0.0007,0.0021,0.0019,0.0019,-0.0025,-0.0049,-0.0053,-0.0098,-0.007,-0.0073,-0.0075,-0.0076,-0.0003,0.0001,0,0,0,0,0,0,0.0173,0.0149,0.0078,0.0074,0.0126,0.0072,0.0063,0.0043,-0.0007,-0.0012,0.0019,0.0018,-0.0045,-0.005,-0.0055,0.0036,-0.0073,-0.0076,-0.0078,-0.0006,-0.0002,0.0002,0,0,0,0,0,0,0.0175,0.0167,0.0082,0.0115,0.0104,0.0071,0.0048,0.0041,0.0039,-0.0008,-0.0014,0.0027,-0.0045,-0.0051,-0.0056,0.0028,-0.0077,-0.008,-0.001,-0.0005,0.0,0.0134,0,0,0,0,0,0,0.0177,0.0167,0.0155,0.0116,0.0103,0.0069,0.0048,0.004,0.0039,0.0037,-0.0003,-0.0009,-0.0044,-0.0052,-0.0059,0.0023,-0.0082,-0.0015,-0.0008,-0.0002,0.0125,0.0143,0.0159,0,0,0,0,0,0.0181,0.0153,0.0154,0.0146,0.0088,0.007,0.0062,0.0037,0.0039,0.0037,0.002,-0.0007,-0.0011,-0.0053,-0.0062,0.0021,-0.0018,-0.001,-0.0002,0.0117,0.014,0.0159,0,0,0,0,0,0,0.0187,0.0147,0.0146,0.0108,0.0105,0.0066,0.006,0.0053,0.0034,0.004,0.0001,-0.0007,0.0037,0.0004,-0.004,0.0069,-0.0003,0.0004,0.0091,0.0112,0.0128,0.0164,-0.0084,0,0,0,0,0,0.0186,0.0148,0.0137,0.0107,0.0116,0.0098,0.0088,0.008,0.0062,0.0054,0.0034,0.0035,0.006,0.0062,0.006,0.0087,0.0034,0.015,0.0167,0.0182,0.0209,0.0206,0.0224,0.0029,0.0029,0.0029,0,0,0.0177,0.0152,0.013,0.0106,0.0102,0.0112,0.0092,0.0091,0.0104,0.0052,0.0065,0.0081,0.008,0.0129,0.0149,0.0111,0.02,0.0192,0.0204,0.0224,0.0216,0.0234,0.0251,0.0035,0.0033,0.0033,0,0,0.0163,0.0135,0.0122,0.0125,0.0132,0.0122,0.0136,0.0128,0.0135,0.0155,0.0151,0.021,0.0209,0.0241,0.0257,0.0364,0.029,0.039,0.0499,0.0496,0.0511,0.0524,0.0428,0.0432,0.0398,0.0399,0.0399,0,0.0174,0.0141,0.0119,0.0132,0.0137,0.014,0.0158,0.0164,0.0155,0.0195,0.0183,0.028,0.0273,0.0372,0.0435,0.0405,0.0359,0.0415,0.0515,0.0528,0.0538,0.0438,0.044,0.0406,0.0405,0.0404,0.0404,0,0.0164,0.0153,0.0155,0.0164,0.0167,0.0178,0.0201,0.0235,0.0265,0.0291,0.0402,0.0412,0.0488,0.0517,0.0513,0.0628,0.0552,0.0531,0.0455,0.0566,0.0452,0.0452,0.0417,0.0414,0.0412,0.041,0,0,0.0163,0.0152,0.0164,0.0173,0.0188,0.0194,0.0249,0.0312,0.0384,0.0432,0.0531,0.0631,0.0684,0.0711,0.0729,0.075,0.0778,0.0701,0.0698,0.0591,0.0711,0.0732,0.0731,0.078,0.0783,0.0784,0.0578,0,0.0181,0.0197,0.0191,0.0217,0.0221,0.026,0.0312,0.0377,0.0445,0.0539,0.0629,0.0724,0.0741,0.0812,0.0848,0.0814,0.0795,0.0832,0.0635,0.0627,0.0623,0.0741,0.0792,0.0577,0.0577,0.0577,0.0577,0,0.0185,0.0185,0.0212,0.0241,0.0261,0.0302,0.041,0.0458,0.0601,0.0667,0.0805,0.0861,0.0968,0.0941,0.093,0.0958,0.0864,0.0801,0.079,0.0776,0.0654,0.046,0.0575,0.0575,0.0575,0.0575,0.0575,0,0.0168,0.0203,0.022,0.0228,0.0273,0.0342,0.0402,0.0528,0.0603,0.0769,0.0845,0.0967,0.1031,0.099,0.0941,0.0933,0.0864,0.0804,0.0701,0.0693,0.0664,0.0653,0.0755,0.0755,0.0756,0.0756,0.0757,0,0.0163,0.0177,0.0233,0.0239,0.0314,0.0356,0.048,0.0571,0.0717,0.081,0.0928,0.0997,0.106,0.1048,0.0956,0.0862,0.0866,0.075,0.0685,0.0716,0.0714,0.0658,0.0649,0.0748,0.075,0.0752,0.0753,0,0.0126,0.0157,0.0171,0.0251,0.0295,0.036,0.0518,0.0603,0.0739,0.0861,0.0923,0.104,0.1043,0.1037,0.0947,0.0875,0.0766,0.0698,0.0705,0.0636,0.0559,0.056,0.055,0.055,0.055,0.055,0.055,0,0.01,0.0099,0.0178,0.0217,0.0268,0.0379,0.0455,0.0611,0.0694,0.0853,0.0891,0.0981,0.1036,0.0921,0.0901,0.0749,0.0718,0.0621,0.0655,0.0623,0.0558,0.0559,0.056,0.055,0.055,0.055,0.055,0,0.0035,0.0075,0.0095,0.0181,0.0266,0.0341,0.0471,0.0531,0.0689,0.0811,0.0895,0.0925,0.0924,0.0903,0.0845,0.0708,0.0696,0.062,0.0617,0.0648,0.0622,0.0558,0.0559,0.055,0.055,0.055,0.055,0,-0.0001,0.0004,0.0054,0.0143,0.0222,0.0287,0.0362,0.0475,0.0582,0.0786,0.0785,0.0845,0.0934,0.087,0.0776,0.0737,0.0681,0.0606,0.0603,0.0602,0.0728,0.071,0.064,0,0,0,0,0,-0.0032,-0.0017,0.0023,0.0105,0.0179,0.0252,0.0355,0.0427,0.0581,0.0642,0.0745,0.0754,0.0747,0.0743,0.0699,0.0701,0.0623,0.0636,0.0521,0.055,0.055,0.07,0,0,0,0,0,0,-0.0053,-0.0028,-0.0006,0.006,0.0126,0.0204,0.0272,0.0365,0.0424,0.0582,0.0587,0.071,0.0697,0.0795,0.0698,0.0691,0.0595,0.0681,0.0678,0.055,0.055,0.055,0.0704,0,0,0,0,0]},{"header":{"parameterUnit":"m.s-1","parameterCategory":2,"la1":30.2991,"la2":30.254,"lo1":-89.0895,"lo2":-89.0444,"dy":0.0017,"dx":0.0017,"nx":28,"ny":28,"refTime":"2025-06-21T21:00:00:Z","depth":"4","parameterNumber":3,"parameterNumberName":"V-component_of_CURRENTS"},"data":[0,0,0,0,0,0,0,0,0,0,0,0,0,0,0,0,0,0,0,0,0,0,0,0,0,0,0,0,0,0,0,0,0,0,0,0,0,0,0,0,0,0,0,0,0,0,0,0,0,0,0,0,0,0,0,0,0,0,0.0376,0.0377,0,0.0404,0.0404,0.0404,0.0445,0.0446,0.0447,0.0448,0.0563,0.0565,0.0568,0,0,0,0,0,0,0,0,0,0,0,0,0,0.0234,0.0237,0.0376,0.0377,0.0377,0.0404,0.0404,0.0404,0.0445,0.0446,0.0447,0.0448,0.0562,0.0565,0.0568,0,0,0,0,0,0,0,0,0,0,0,0,0,0.0282,0.0238,0.0376,0.0401,0.0403,0.0404,0.0404,0.0404,0.0445,0.0446,0.0447,0.0448,0.0561,0.0565,0.0568,0.0567,0,0,0.0579,0.0581,0,0,0,0,0,0,0,0,0.0279,0.0287,0.0397,0.0399,0.0402,0.0423,0.0396,0.0463,0.0445,0.0429,0.0448,0.0449,0.0524,0.053,0.0531,0.0573,0.0578,0.058,0.0582,0.0583,0.0584,0,0,0,0,0,0,0,0.0276,0.0285,0.0387,0.0397,0.04,0.0368,0.0377,0.0408,0.0471,0.043,0.0433,0.0437,0.0526,0.0528,0.0535,0.058,0.0579,0.0583,0.0585,0.0586,0.0607,0.0606,0,0,0,0,0,0,0.028,0.0283,0.0386,0.0388,0.0343,0.037,0.038,0.0415,0.0469,0.0477,0.0436,0.0439,0.0521,0.053,0.0539,0.0559,0.0583,0.0587,0.0589,0.0609,0.0607,0.0605,0,0,0,0,0,0,0.0277,0.029,0.0385,0.0334,0.0344,0.0372,0.041,0.0414,0.0432,0.0472,0.0483,0.045,0.0522,0.0534,0.0578,0.0563,0.0588,0.0591,0.0611,0.0608,0.0606,0.0588,0,0,0,0,0,0,0.0273,0.0289,0.0312,0.0336,0.0347,0.0397,0.0409,0.0414,0.0432,0.0436,0.0488,0.0499,0.0524,0.0572,0.0581,0.0569,0.0594,0.0613,0.061,0.0607,0.059,0.0585,0.058,0,0,0,0,0,0.0268,0.03,0.0314,0.0326,0.0381,0.0397,0.04,0.0421,0.0431,0.0441,0.0474,0.0498,0.0559,0.0575,0.0586,0.0574,0.0614,0.0611,0.0607,0.0592,0.0586,0.058,0,0,0,0,0,0,0.0251,0.0308,0.0324,0.0373,0.0387,0.0405,0.0411,0.0425,0.0455,0.0466,0.0502,0.0515,0.0538,0.0555,0.0572,0.0563,0.058,0.0579,0.0565,0.0559,0.0555,0.0561,0.0597,0,0,0,0,0,0.0257,0.0301,0.0332,0.0369,0.0376,0.0393,0.0401,0.0419,0.0446,0.046,0.0499,0.052,0.0525,0.0546,0.0562,0.0579,0.0548,0.0565,0.056,0.0557,0.0564,0.0461,0.0447,0.0594,0.0594,0.0594,0,0,0.0263,0.0296,0.0322,0.0367,0.0378,0.0391,0.0402,0.0422,0.0435,0.0469,0.0507,0.0516,0.0525,0.0534,0.0543,0.0554,0.0502,0.0552,0.0549,0.0559,0.0455,0.0441,0.0428,0.0591,0.0592,0.0592,0,0,0.0273,0.032,0.0346,0.0362,0.0385,0.0395,0.0403,0.0432,0.0447,0.0481,0.0487,0.0481,0.0532,0.0509,0.0506,0.0479,0.0477,0.0489,0.0481,0.0379,0.0367,0.0355,0.0316,0.0301,0.0489,0.0489,0.0489,0,0.0272,0.0324,0.035,0.0367,0.038,0.0398,0.0412,0.0423,0.0467,0.047,0.0497,0.0492,0.0504,0.0465,0.0464,0.0467,0.044,0.0509,0.0373,0.036,0.0349,0.0311,0.0295,0.0487,0.0487,0.0488,0.0488,0,0.0298,0.0334,0.0345,0.0382,0.039,0.0413,0.0425,0.0447,0.047,0.0472,0.0461,0.0459,0.0459,0.0438,0.0462,0.0381,0.04,0.0376,0.0391,0.0333,0.0297,0.0281,0.0485,0.0486,0.0486,0.0487,0,0,0.0327,0.036,0.0368,0.038,0.0407,0.0418,0.0431,0.044,0.0442,0.0457,0.0437,0.0422,0.0423,0.0416,0.0408,0.0325,0.0228,0.0338,0.0333,0.0307,0.0055,0.0116,0.0104,0.0186,0.0182,0.0179,0.007,0,0.0344,0.0371,0.0387,0.0413,0.0424,0.0442,0.0454,0.0458,0.0459,0.0448,0.04,0.04,0.041,0.0422,0.0332,0.025,0.0182,0.0264,0.011,0.0106,0.0171,0.0084,0.0168,0.0058,0.0054,0.0051,0.0049,0,0.0372,0.0388,0.0412,0.0432,0.044,0.047,0.0482,0.0495,0.0465,0.0461,0.0423,0.0411,0.0328,0.0337,0.0155,0.0216,0.0155,0.0079,0.0071,0.0126,0.0135,0.0121,0.0019,0.0021,0.0023,0.0025,0.0027,0,0.0375,0.0408,0.0429,0.0441,0.0466,0.0498,0.0526,0.0515,0.0524,0.0486,0.0477,0.0373,0.0349,0.0208,0.0123,0.0134,-0.009,-0.0111,-0.0118,-0.0112,-0.0122,-0.0108,-0.0248,-0.0247,-0.0247,-0.0247,-0.0247,0,0.0392,0.0412,0.0451,0.047,0.052,0.0528,0.0569,0.0577,0.0566,0.0549,0.0508,0.0455,0.0318,0.0204,0.0093,-0.0048,-0.0112,-0.0128,-0.0155,-0.0123,-0.0109,-0.0132,-0.0117,-0.0251,-0.025,-0.0249,-0.0248,0,0.0389,0.0413,0.0449,0.0499,0.0529,0.0576,0.0643,0.0642,0.0648,0.0618,0.0624,0.0517,0.0364,0.0234,0.0009,-0.0055,-0.0219,-0.0239,-0.0151,-0.0168,-0.0165,-0.015,-0.0299,-0.0298,-0.0297,-0.0297,-0.0296,0,0.0384,0.0404,0.0479,0.0517,0.0562,0.0632,0.0662,0.0696,0.0691,0.0636,0.0603,0.0503,0.0417,0.0149,-0.0007,-0.0206,-0.0213,-0.0261,-0.0254,-0.0169,-0.018,-0.0166,-0.0152,-0.0295,-0.0295,-0.0295,-0.0294,0,0.0377,0.0416,0.0441,0.0525,0.0588,0.0636,0.0696,0.0704,0.0703,0.0704,0.061,0.0506,0.0336,0.0143,0.0042,-0.0122,-0.0233,-0.0255,-0.0258,-0.0252,-0.0166,-0.0175,-0.0162,-0.0292,-0.0292,-0.0293,-0.0293,0,0.0372,0.0391,0.0435,0.0514,0.0581,0.0621,0.0659,0.0663,0.0681,0.0654,0.0602,0.0441,0.0365,0.0184,0.0036,-0.0062,-0.0103,-0.0123,-0.0133,-0.0138,-0.0047,0.0088,0.0001,0,0,0,0,0,0.036,0.0368,0.0415,0.049,0.0554,0.0615,0.0649,0.0669,0.068,0.0635,0.0647,0.0498,0.0308,0.019,0.0099,0.0012,-0.0144,-0.0099,-0.0177,-0.0278,-0.0281,-0.0196,0,0,0,0,0,0,0.0341,0.0373,0.0388,0.0456,0.0516,0.0581,0.0616,0.0626,0.0617,0.0618,0.051,0.0506,0.0302,0.0378,0.0109,0.0071,0.0017,-0.018,-0.0181,-0.0277,-0.0279,-0.0282,-0.0195,0,0,0,0,0]}]]